Precipitable_Water
0.85 0.87 0.84 0.79 0.68 0.77 0.82 0.76 0.81 0.79 0.76 0.71 0.62 0.60 0.60 0.60 0.59 0.58 0.54 0.49 0.48 0.47 0.46 0.46 0.49 0.52 0.55 0.55 0.55 0.53 0.50 0.48 0.47 0.47 0.47 0.45 0.45 0.44 0.43 0.43 0.43 0.40
0.88 0.89 0.87 0.76 0.77 0.84 0.87 0.87 0.86 0.83 0.71 0.62 0.59 0.57 0.58 0.59 0.58 0.57 0.52 0.47 0.47 0.45 0.44 0.43 0.44 0.47 0.50 0.50 0.51 0.50 0.45 0.44 0.42 0.45 0.42 0.39 0.38 0.36 0.34 0.33 0.32 0.35
0.90 0.92 0.87 0.78 0.79 0.82 0.84 0.87 0.85 0.79 0.66 0.59 0.56 0.56 0.56 0.59 0.57 0.56 0.52 0.48 0.45 0.44 0.43 0.40 0.40 0.42 0.45 0.47 0.47 0.45 0.42 0.41 0.40 0.42 0.40 0.36 0.37 0.35 0.37 0.39 0.42 0.44
0.93 0.93 0.92 0.86 0.84 0.83 0.85 0.83 0.78 0.72 0.64 0.57 0.53 0.53 0.54 0.55 0.56 0.54 0.52 0.49 0.46 0.45 0.45 0.43 0.40 0.40 0.42 0.43 0.44 0.43 0.43 0.43 0.44 0.45 0.42 0.43 0.44 0.46 0.47 0.49 0.49 0.50
0.91 0.95 0.95 0.90 0.86 0.81 0.81 0.78 0.73 0.69 0.65 0.61 0.58 0.56 0.53 0.51 0.52 0.52 0.51 0.51 0.50 0.50 0.50 0.48 0.47 0.46 0.47 0.48 0.49 0.48 0.48 0.47 0.49 0.50 0.48 0.48 0.52 0.53 0.54 0.54 0.53 0.53
0.95 0.96 0.95 0.91 0.86 0.79 0.77 0.78 0.66 0.63 0.66 0.66 0.63 0.60 0.55 0.52 0.51 0.51 0.52 0.52 0.53 0.54 0.56 0.57 0.55 0.53 0.54 0.53 0.54 0.54 0.54 0.53 0.54 0.54 0.52 0.52 0.52 0.53 0.53 0.55 0.54 0.53
0.90 0.92 0.92 0.91 0.84 0.78 0.77 0.78 0.66 0.61 0.65 0.67 0.65 0.62 0.60 0.55 0.52 0.53 0.54 0.55 0.56 0.57 0.59 0.60 0.60 0.60 0.59 0.57 0.55 0.54 0.54 0.54 0.54 0.55 0.53 0.55 0.55 0.53 0.53 0.54 0.53 0.53
0.89 0.91 0.93 0.91 0.84 0.76 0.79 0.80 0.71 0.62 0.65 0.67 0.63 0.63 0.62 0.59 0.58 0.59 0.58 0.58 0.58 0.59 0.62 0.63 0.64 0.63 0.62 0.61 0.58 0.57 0.56 0.56 0.54 0.53 0.52 0.53 0.54 0.52 0.52 0.53 0.54 0.52
0.90 0.90 0.93 0.91 0.83 0.75 0.77 0.81 0.74 0.66 0.67 0.67 0.65 0.65 0.65 0.64 0.62 0.61 0.62 0.62 0.61 0.61 0.62 0.62 0.64 0.64 0.64 0.63 0.63 0.62 0.61 0.61 0.60 0.58 0.55 0.53 0.53 0.53 0.54 0.55 0.55 0.55
0.86 0.90 0.92 0.91 0.81 0.74 0.76 0.81 0.76 0.68 0.66 0.67 0.68 0.68 0.65 0.67 0.68 0.65 0.63 0.63 0.62 0.62 0.62 0.62 0.63 0.64 0.65 0.65 0.65 0.65 0.65 0.66 0.66 0.65 0.63 0.62 0.60 0.59 0.59 0.59 0.59 0.59
0.89 0.90 0.90 0.88 0.83 0.78 0.78 0.83 0.79 0.72 0.69 0.66 0.66 0.66 0.68 0.70 0.73 0.72 0.67 0.66 0.66 0.67 0.68 0.68 0.69 0.69 0.69 0.71 0.74 0.76 0.77 0.78 0.78 0.77 0.77 0.76 0.75 0.74 0.72 0.72 0.71 0.70
0.94 0.92 0.89 0.87 0.85 0.84 0.84 0.86 0.83 0.77 0.73 0.69 0.67 0.66 0.72 0.75 0.75 0.76 0.75 0.72 0.73 0.76 0.78 0.79 0.78 0.79 0.82 0.84 0.85 0.87 0.88 0.90 0.90 0.90 0.89 0.88 0.88 0.88 0.87 0.86 0.84 0.83
0.98 0.97 0.95 0.91 0.89 0.88 0.88 0.86 0.85 0.82 0.78 0.74 0.71 0.69 0.72 0.77 0.80 0.80 0.84 0.83 0.82 0.83 0.84 0.86 0.86 0.86 0.87 0.89 0.91 0.93 0.93 0.93 0.93 0.93 0.94 0.94 0.94 0.93 0.93 0.94 0.93 0.91
0.97 0.99 0.97 0.94 0.89 0.86 0.86 0.87 0.88 0.85 0.83 0.83 0.78 0.70 0.71 0.78 0.83 0.85 0.88 0.89 0.90 0.91 0.92 0.93 0.94 0.92 0.92 0.93 0.94 0.95 0.95 0.95 0.95 0.95 0.96 0.98 0.98 0.98 0.98 0.98 0.97 0.95
0.93 0.95 0.98 0.97 0.92 0.86 0.85 0.86 0.87 0.88 0.89 0.89 0.86 0.78 0.77 0.80 0.85 0.88 0.89 0.90 0.93 0.95 0.95 0.96 0.94 0.95 0.97 0.98 0.98 0.97 0.98 0.97 0.98 0.98 0.98 0.98 0.99 0.98 0.97 0.98 0.97 0.95
0.92 0.92 0.93 0.94 0.93 0.90 0.87 0.85 0.86 0.88 0.90 0.90 0.91 0.90 0.85 0.84 0.83 0.85 0.87 0.90 0.92 0.94 0.97 0.98 0.98 0.98 0.99 1.00 0.99 0.99 0.99 0.99 1.00 1.00 1.00 0.99 0.96 0.94 0.95 0.97 0.96 0.96
0.87 0.89 0.91 0.90 0.93 0.95 0.93 0.90 0.88 0.88 0.89 0.90 0.92 0.93 0.92 0.91 0.89 0.87 0.87 0.90 0.93 0.94 0.94 0.97 1.00 1.01 1.01 0.97 0.97 0.96 0.97 0.99 0.99 1.00 1.00 0.98 0.94 0.92 0.91 0.93 0.94 0.94
0.83 0.85 0.86 0.87 0.89 0.91 0.93 0.95 0.95 0.92 0.90 0.91 0.92 0.94 0.96 0.96 0.93 0.92 0.93 0.93 0.92 0.95 0.96 0.97 0.98 1.00 1.00 0.99 0.99 0.98 0.99 1.03 1.04 1.02 1.00 0.97 0.94 0.92 0.92 0.92 0.92 0.93
0.82 0.83 0.84 0.86 0.88 0.90 0.92 0.93 0.93 0.93 0.93 0.93 0.96 0.98 0.98 0.98 0.94 0.91 0.90 0.91 0.92 0.91 0.92 0.96 1.00 1.02 1.00 1.00 1.03 1.03 1.03 1.04 1.03 1.02 0.98 0.96 0.94 0.92 0.91 0.90 0.91 0.91
0.75 0.81 0.82 0.85 0.89 0.91 0.91 0.90 0.90 0.89 0.92 0.94 0.94 0.96 0.96 0.91 0.93 0.89 0.88 0.88 0.91 0.93 0.94 0.96 0.97 1.01 1.02 1.02 1.04 1.04 1.02 0.99 0.94 0.91 0.88 0.84 0.80 0.78 0.77 0.78 0.78 0.75
0.54 0.61 0.70 0.76 0.82 0.87 0.89 0.89 0.90 0.91 0.92 0.94 0.95 0.94 0.93 0.89 0.92 0.90 0.87 0.87 0.89 0.93 0.96 0.99 1.01 1.01 0.99 0.98 0.95 0.92 0.89 0.85 0.82 0.76 0.68 0.62 0.59 0.58 0.58 0.58 0.59 0.60
0.53 0.54 0.56 0.65 0.74 0.79 0.81 0.84 0.87 0.90 0.91 0.94 0.94 0.93 0.94 0.95 0.94 0.91 0.87 0.87 0.90 0.91 0.91 0.90 0.92 0.93 0.91 0.88 0.84 0.79 0.74 0.68 0.63 0.58 0.55 0.55 0.55 0.56 0.58 0.59 0.61 0.62
0.57 0.55 0.55 0.57 0.64 0.72 0.76 0.79 0.82 0.84 0.86 0.88 0.87 0.88 0.87 0.86 0.86 0.86 0.86 0.86 0.84 0.82 0.79 0.77 0.77 0.78 0.76 0.75 0.71 0.67 0.63 0.59 0.58 0.57 0.57 0.57 0.57 0.58 0.58 0.59 0.60 0.61
0.58 0.55 0.53 0.55 0.59 0.64 0.67 0.70 0.73 0.74 0.75 0.79 0.79 0.79 0.80 0.80 0.78 0.75 0.75 0.73 0.68 0.65 0.62 0.60 0.60 0.61 0.60 0.59 0.59 0.60 0.60 0.59 0.58 0.57 0.56 0.56 0.56 0.57 0.56 0.56 0.57 0.56
0.60 0.58 0.57 0.57 0.57 0.60 0.62 0.63 0.64 0.66 0.68 0.72 0.72 0.73 0.71 0.70 0.67 0.63 0.62 0.61 0.60 0.58 0.56 0.54 0.53 0.51 0.52 0.53 0.56 0.58 0.60 0.60 0.58 0.56 0.54 0.55 0.55 0.55 0.56 0.55 0.53 0.53
0.55 0.55 0.56 0.56 0.56 0.56 0.58 0.60 0.61 0.61 0.61 0.61 0.61 0.61 0.60 0.61 0.59 0.56 0.53 0.52 0.52 0.50 0.48 0.46 0.44 0.44 0.46 0.49 0.51 0.55 0.57 0.58 0.59 0.55 0.52 0.53 0.54 0.53 0.51 0.51 0.50 0.50
Wind_Speed
14 14 14 14 13 13 13 14 15 14 13 12 11 10 9 8 8 7 6 6 5 5 4 4 4 4 4 4 4 4 4 4 4 4 4 4 4 4 4 4 4 4
13 13 13 13 13 12 12 13 13 11 9 9 9 8 8 8 7 7 6 5 5 4 4 4 4 4 3 3 3 4 4 4 4 4 4 4 4 4 4 4 4 4
13 13 12 12 11 11 11 10 9 8 8 8 9 8 8 8 8 7 6 6 5 4 4 4 3 3 3 3 3 3 3 3 3 3 3 3 3 3 3 3 3 3
13 13 12 11 11 10 10 9 9 8 8 8 8 8 8 8 8 7 6 6 5 5 4 4 4 3 3 3 3 3 4 4 4 3 3 3 3 3 3 3 3 3
13 13 13 12 11 11 10 9 9 9 9 8 8 8 8 8 8 7 7 7 6 6 5 5 4 4 4 3 3 3 3 3 4 4 3 3 3 3 3 3 3 4
13 12 12 12 12 12 11 10 10 10 10 9 9 9 8 8 8 8 7 7 7 7 6 6 5 5 5 4 4 4 4 4 4 4 4 3 3 4 4 4 4 4
12 12 12 13 12 12 11 10 10 11 10 10 10 10 10 9 9 9 9 8 8 8 8 7 7 7 6 6 5 5 5 4 4 5 5 5 5 5 5 6 6 6
12 12 12 12 12 11 11 11 11 12 11 11 11 11 11 11 10 10 10 9 9 9 9 9 8 8 8 8 7 7 6 6 6 6 6 6 6 7 7 7 8 8
13 13 12 12 11 12 11 11 12 12 12 12 12 12 12 12 12 11 11 11 10 10 10 10 10 10 9 9 9 9 8 8 8 8 8 8 8 8 9 9 9 9
14 13 13 12 12 13 12 12 13 13 13 13 13 13 13 12 13 13 13 12 12 12 12 11 11 11 11 11 11 11 11 11 11 11 11 11 11 11 11 11 11 11
13 13 13 14 14 14 14 14 14 14 14 14 14 14 14 14 13 14 14 14 14 14 14 14 13 13 13 13 13 13 13 13 13 13 13 13 13 13 13 13 13 13
15 15 15 15 15 15 15 16 16 15 15 15 15 16 16 16 15 15 15 15 16 16 16 16 16 15 15 15 15 15 15 14 14 14 14 14 14 14 15 15 15 15
15 16 16 16 16 16 16 17 17 17 17 17 17 17 18 18 17 17 16 17 17 17 17 17 18 17 17 17 16 17 17 16 16 16 16 16 16 16 17 17 17 17
16 16 17 17 18 17 17 18 19 19 20 19 19 19 19 19 19 18 18 18 18 18 18 19 19 19 19 19 19 19 19 19 18 18 18 18 18 19 19 18 18 19
17 17 17 18 19 19 20 20 20 21 22 22 21 21 21 21 21 21 20 20 20 20 20 21 21 21 21 20 20 21 21 21 21 21 20 21 21 21 20 20 20 20
18 18 19 19 20 21 21 22 22 23 24 24 24 24 23 23 23 23 23 22 22 22 23 22 22 22 23 23 22 22 23 23 22 23 23 23 22 22 22 22 22 22
19 20 20 21 22 22 22 23 23 24 25 26 26 26 26 25 25 25 24 24 24 24 24 24 23 23 24 24 24 25 25 24 24 24 23 23 22 22 22 22 22 23
21 22 22 23 23 23 23 23 24 24 25 26 27 27 27 27 27 27 27 26 27 27 27 27 27 26 25 25 26 25 25 24 23 23 22 21 21 22 22 22 22 23
23 23 24 24 24 25 25 25 25 25 26 27 27 28 28 28 28 28 29 29 29 28 28 29 29 28 27 26 25 23 22 21 21 21 21 22 22 23 23 23 23 23
24 24 25 25 26 26 27 27 27 28 28 28 28 28 28 28 27 27 27 27 26 26 26 26 26 26 24 23 22 21 21 21 21 22 22 23 23 23 23 23 24 24
23 24 25 26 26 27 27 28 28 28 28 28 28 28 28 27 26 25 25 25 25 24 24 24 23 23 22 22 22 22 22 22 22 23 23 23 23 23 23 24 24 25
24 24 25 26 26 26 27 27 28 28 28 28 28 28 28 27 26 25 25 25 25 24 24 23 23 23 23 23 23 23 22 23 23 23 23 23 23 23 23 24 24 25
26 26 25 26 26 27 27 27 28 28 28 28 28 28 28 27 26 25 24 24 24 24 24 24 23 23 23 23 23 23 23 23 23 23 23 23 23 23 23 23 24 24
28 28 27 26 26 27 28 28 28 28 28 28 28 27 27 26 25 24 23 23 23 23 23 23 23 22 23 23 23 23 23 23 23 23 23 23 23 23 23 23 23 24
29 29 28 28 27 28 28 28 28 28 27 27 27 27 26 26 25 24 23 23 22 23 23 22 22 22 22 22 23 23 23 23 23 23 23 23 23 23 23 23 23 24
32 31 30 30 30 30 30 29 28 28 27 27 27 27 26 26 25 25 24 23 23 23 22 22 21 21 22 22 23 23 24 24 24 24 24 24 24 24 24 24 24 24
Wind_Direction
259 262 265 266 266 269 270 266 266 270 266 257 258 261 259 261 262 262 263 259 256 254 250 247 246 249 251 248 245 242 240 237 233 233 232 229 229 228 228 231 231 231
260 263 264 263 262 266 271 268 265 263 255 247 248 250 250 251 251 252 255 252 250 248 243 241 236 235 238 237 238 236 229 224 219 221 222 218 219 221 222 223 221 220
259 261 262 262 261 263 267 263 255 248 245 242 241 242 244 244 243 245 246 243 241 238 236 236 228 220 219 220 224 225 218 212 207 208 208 206 207 207 207 210 209 209
257 259 261 262 260 262 263 254 243 242 244 242 239 239 239 239 238 238 237 235 233 231 229 229 224 215 211 212 214 215 213 210 207 205 202 201 204 202 203 206 206 208
257 259 261 261 260 261 261 251 243 243 242 238 236 234 232 233 234 233 233 232 230 228 226 224 223 217 213 213 213 213 210 210 212 212 207 206 211 214 217 220 220 223
255 256 257 260 259 257 254 247 242 240 237 234 231 230 229 229 230 231 231 232 231 229 226 225 225 223 221 221 220 219 218 218 221 223 223 225 229 235 237 238 239 241
252 253 255 258 256 252 248 243 239 237 235 231 229 231 232 230 230 230 229 229 230 229 229 229 230 230 231 232 231 229 228 228 231 234 237 242 245 249 253 253 254 254
254 255 256 256 252 249 245 239 236 236 235 231 230 233 234 232 230 229 229 230 231 233 235 235 235 236 238 240 240 238 238 239 242 244 248 252 254 256 258 259 260 260
257 257 256 253 250 247 244 239 236 236 235 233 231 233 235 234 233 233 234 234 234 235 237 238 239 238 239 242 243 243 244 245 247 249 252 255 258 259 260 261 262 263
258 256 253 251 250 247 245 242 238 237 237 236 235 234 235 236 237 238 239 238 239 239 239 240 241 240 241 243 245 246 247 248 250 252 255 256 258 259 260 261 262 263
257 255 252 251 251 250 248 245 241 240 241 240 239 238 237 237 239 241 243 243 244 245 244 244 245 245 246 246 248 250 251 253 255 256 258 260 261 261 261 261 262 263
257 255 252 252 252 252 250 246 242 242 243 243 243 241 240 240 241 243 245 245 246 247 247 247 248 248 249 249 250 252 253 256 259 260 261 262 263 263 263 264 264 265
257 254 253 253 253 253 250 245 243 243 245 246 246 244 243 243 242 243 245 245 246 247 248 248 249 249 250 251 252 253 254 256 259 261 262 262 263 265 266 266 267 266
258 256 255 255 254 254 250 247 246 246 247 248 247 245 244 244 244 244 245 246 247 249 250 251 251 251 252 253 255 256 256 258 260 261 262 263 265 266 267 268 268 268
259 259 258 257 257 255 253 250 249 248 249 249 247 246 245 246 247 247 248 250 252 252 253 255 255 255 254 255 257 258 258 259 260 261 262 264 266 266 266 266 268 269
260 260 260 260 259 257 255 253 251 250 249 249 249 248 248 249 250 250 251 253 254 255 256 258 258 257 255 256 257 259 260 260 261 261 261 263 265 264 264 265 267 269
262 262 261 261 261 260 258 256 253 251 250 249 249 250 250 251 252 253 254 255 255 255 256 258 259 258 256 256 258 259 260 261 261 260 260 262 263 263 264 265 266 268
265 264 263 262 261 261 260 258 256 254 252 251 251 251 252 253 254 254 256 257 258 258 257 258 258 257 257 258 259 259 258 258 258 258 258 259 261 263 265 266 266 267
268 266 264 263 262 261 260 259 258 256 255 254 253 254 255 256 256 256 257 259 260 259 257 256 255 255 257 257 256 254 253 254 256 257 258 260 263 265 266 266 267 268
270 268 266 264 263 261 260 260 259 257 256 255 255 256 258 258 256 256 258 258 258 257 256 254 252 252 254 253 250 249 249 252 256 259 261 262 264 265 266 266 267 269
273 271 268 265 263 262 260 259 259 258 257 256 255 256 257 257 255 255 257 257 256 256 255 253 252 250 249 248 247 248 250 253 257 260 262 263 264 266 267 268 269 270
274 273 269 266 263 261 259 259 258 258 257 256 255 255 255 255 255 255 255 255 255 254 252 251 251 250 249 249 249 250 252 255 257 259 260 262 264 266 268 270 271 272
273 271 269 266 263 260 259 259 259 259 258 257 255 255 254 254 254 254 253 252 252 251 250 250 251 251 252 252 251 252 254 256 257 258 259 262 264 267 269 271 273 273
270 269 268 265 263 262 261 260 260 259 257 256 254 253 253 252 252 251 250 250 249 250 251 251 251 252 252 252 252 252 254 255 257 258 260 262 264 267 270 272 274 275
268 267 266 264 263 263 262 260 259 256 254 253 251 250 250 249 249 249 249 249 250 250 250 250 250 251 252 252 251 252 254 256 257 258 260 261 263 266 269 272 275 277
267 266 264 262 262 262 261 259 258 255 252 250 249 248 248 248 247 248 248 249 250 249 248 248 249 250 252 253 253 253 255 257 257 258 260 261 263 266 269 272 275 276